Location: Newark
(45.2500°N, 7.5833°E)
Time: 03:27:34
(UTC+00:00)

Tiros 1 despin weight - Pass Details

Date: 01 February 2020
Orbit: 594 x 642 km, 48.2° (Epoch: 17 February)

Event Time Altitude Azimuth Distance (km) Brightness Sun altitude
Rises 11:33:27 0° 283° (WNW) 2,865 ? 27.5°
Reaches altitude 10° 11:35:45 10° 286° (WNW) 1,968 ? 27.6°
Maximum altitude 11:40:15 63° 8° (N) 690 ? 27.6°
Drops below altitude 10° 11:44:48 10° 91° (E) 1,997 ? 27.6°
Sets 11:47:10 0° 94° (E) 2,911 ? 27.6°
